START_TIME,STEP,MOV.,P11,t_acc.,P23,t_acc.,P27,t_acc.,A4,t_acc.
1979-07-05 06:00:23.850 ,0,1,1.,4.8,0.,4.8,0.,4.8,0.,4.8
1979-07-05 06:00:28.660 ,0,1,0.,4.8,0.,4.8,0.,4.8,0.,4.8
1979-07-05 06:00:33.460 ,0,1,0.,4.8,0.,4.8,0.,4.8,0.,4.8
1979-07-05 06:00:38.260 ,0,1,1.,4.8,0.,4.8,0.,4.8,0.,4.8
1979-07-05 06:00:43.060 ,0,1,1.,4.8,0.,4.8,0.,4.8,0.,4.8
1979-07-05 06:00:47.850 ,4,1,0.,4.8,0.,4.8,0.,4.8,0.,4.8
1979-07-05 06:00:52.660 ,4,1,1.,4.8,0.,4.8,0.,4.8,0.,4.8
1979-07-05 06:00:57.460 ,4,1,0.,4.8,0.,4.8,0.,4.8,0.,4.8
1979-07-05 06:01:02.260 ,4,1,1.,4.8,0.,4.8,0.,4.8,0.,4.8
1979-07-05 06:01:07.060 ,4,1,0.,4.8,0.,4.8,0.,4.8,0.,4.8
1979-07-05 06:01:11.850 ,7,1,0.,4.8,0.,4.8,0.,4.8,0.,4.8
1979-07-05 06:01:16.650 ,7,1,0.,4.8,0.,4.8,0.,4.8,0.,4.8
1979-07-05 06:01:21.460 ,7,1,0.,4.8,0.,4.8,0.,4.8,0.,4.8
1979-07-05 06:01:26.260 ,7,1,0.,4.8,0.,4.8,0.,4.8,0.,4.8
1979-07-05 06:01:31.060 ,7,1,0.,4.8,0.,4.8,0.,4.8,0.,4.8
1979-07-05 06:01:35.850 ,3,1,1.,4.8,0.,4.8,0.,4.8,0.,4.8
1979-07-05 06:01:40.650 ,3,1,0.,4.8,0.,4.8,0.,4.8,0.,4.8
1979-07-05 06:01:45.460 ,3,1,0.,4.8,0.,4.8,0.,4.8,0.,4.8
1979-07-05 06:01:50.260 ,3,1,1.,4.8,0.,4.8,0.,4.8,0.,4.8
1979-07-05 06:01:55.060 ,3,1,1.,4.8,0.,4.8,0.,4.8,0.,4.8
1979-07-05 06:01:59.850 ,0,1,0.,4.8,0.,4.8,0.,4.8,0.,4.8
1979-07-05 06:02:04.650 ,0,1,0.,4.8,0.,4.8,0.,4.8,0.,4.8
1979-07-05 06:02:09.460 ,0,1,2.,4.8,0.,4.8,0.,4.8,0.,4.8
1979-07-05 06:02:14.260 ,0,1,0.,4.8,0.,4.8,0.,4.8,0.,4.8
1979-07-05 06:02:19.060 ,0,1,1.,4.8,0.,4.8,0.,4.8,0.,4.8
1979-07-05 06:02:23.860 ,4,1,1.,4.8,0.,4.8,0.,4.8,0.,4.8
1979-07-05 06:02:28.660 ,4,1,0.,4.8,0.,4.8,0.,4.8,0.,4.8
1979-07-05 06:02:33.460 ,4,1,0.,4.8,0.,4.8,1.,4.8,0.,4.8
1979-07-05 06:02:38.260 ,4,1,0.,4.8,0.,4.8,0.,4.8,0.,4.8
1979-07-05 06:02:43.060 ,4,1,1.,4.8,0.,4.8,0.,4.8,0.,4.8
1979-07-05 06:02:47.850 ,7,1,0.,4.8,0.,4.8,1.,4.8,0.,4.8
1979-07-05 06:02:52.650 ,7,1,0.,4.8,0.,4.8,2.,4.8,0.,4.8
1979-07-05 06:02:57.460 ,7,1,0.,4.8,1.,4.8,0.,4.8,0.,4.8
1979-07-05 06:03:02.260 ,7,1,0.,4.8,0.,4.8,0.,4.8,0.,4.8
1979-07-05 06:03:07.060 ,7,1,0.,4.8,0.,4.8,0.,4.8,0.,4.8
1979-07-05 06:03:11.860 ,3,1,0.,4.8,0.,4.8,0.,4.8,0.,4.8
1979-07-05 06:03:16.660 ,3,1,0.,4.8,0.,4.8,0.,4.8,0.,4.8
1979-07-05 06:03:21.460 ,3,1,1.,4.8,0.,4.8,0.,4.8,0.,4.8
1979-07-05 06:03:26.260 ,3,1,1.,4.8,0.,4.8,0.,4.8,0.,4.8
1979-07-05 06:03:31.060 ,3,1,0.,4.8,0.,4.8,0.,4.8,0.,4.8
1979-07-05 06:03:35.860 ,0,1,0.,4.8,0.,4.8,0.,4.8,0.,4.8
1979-07-05 06:03:40.650 ,0,1,0.,4.8,0.,4.8,0.,4.8,0.,4.8
1979-07-05 06:03:45.460 ,0,1,0.,4.8,0.,4.8,0.,4.8,0.,4.8
1979-07-05 06:03:50.260 ,0,1,0.,4.8,0.,4.8,0.,4.8,0.,4.8
1979-07-05 06:03:55.060 ,0,1,0.,4.8,0.,4.8,0.,4.8,0.,4.8
1979-07-05 06:03:59.850 ,4,1,0.,4.8,0.,4.8,0.,4.8,0.,4.8
1979-07-05 06:04:04.650 ,4,1,0.,4.8,0.,4.8,0.,4.8,0.,4.8
1979-07-05 06:04:09.460 ,4,1,0.,4.8,0.,4.8,0.,4.8,0.,4.8
1979-07-05 06:04:14.260 ,4,1,0.,4.8,0.,4.8,0.,4.8,1.,4.8
1979-07-05 06:04:19.060 ,4,1,0.,4.8,0.,4.8,0.,4.8,0.,4.8
1979-07-05 06:04:23.860 ,7,1,0.,4.8,0.,4.8,0.,4.8,0.,4.8
1979-07-05 06:04:28.650 ,7,1,0.,4.8,0.,4.8,1.,4.8,0.,4.8
1979-07-05 06:04:33.460 ,7,1,0.,4.8,0.,4.8,0.,4.8,0.,4.8
1979-07-05 06:04:38.260 ,7,1,0.,4.8,0.,4.8,0.,4.8,0.,4.8
1979-07-05 06:04:43.060 ,7,1,0.,4.8,0.,4.8,0.,4.8,0.,4.8
1979-07-05 06:04:47.860 ,3,1,1.,4.8,0.,4.8,0.,4.8,0.,4.8
1979-07-05 06:04:52.650 ,3,1,0.,4.8,0.,4.8,0.,4.8,0.,4.8
1979-07-05 06:04:57.460 ,3,1,0.,4.8,0.,4.8,0.,4.8,0.,4.8
1979-07-05 06:05:02.260 ,3,1,0.,4.8,0.,4.8,0.,4.8,0.,4.8
1979-07-05 06:05:07.060 ,3,1,1.,4.8,0.,4.8,0.,4.8,0.,4.8
1979-07-05 06:05:11.860 ,0,1,1.,4.8,0.,4.8,0.,4.8,0.,4.8
1979-07-05 06:05:16.650 ,0,1,0.,4.8,0.,4.8,0.,4.8,0.,4.8
1979-07-05 06:05:21.460 ,0,1,0.,4.8,0.,4.8,0.,4.8,0.,4.8
1979-07-05 06:05:26.260 ,0,1,0.,4.8,0.,4.8,1.,4.8,0.,4.8
1979-07-05 06:05:31.060 ,0,1,0.,4.8,0.,4.8,0.,4.8,0.,4.8
1979-07-05 06:05:35.860 ,0,0,0.,4.8,0.,4.8,0.,4.8,0.,4.8
1979-07-05 06:05:40.650 ,0,0,1.,4.8,0.,4.8,0.,4.8,0.,4.8
1979-07-05 06:05:45.460 ,0,0,0.,4.8,0.,4.8,0.,4.8,0.,4.8
1979-07-05 06:05:50.260 ,0,0,0.,4.8,0.,4.8,0.,4.8,0.,4.8
1979-07-05 06:05:55.060 ,0,0,0.,4.8,0.,4.8,0.,4.8,0.,4.8
1979-07-05 06:05:59.860 ,0,0,0.,4.8,0.,4.8,0.,4.8,0.,4.8
1979-07-05 06:06:04.650 ,0,0,0.,4.8,0.,4.8,0.,4.8,0.,4.8
1979-07-05 06:06:09.460 ,0,0,0.,4.8,0.,4.8,0.,4.8,0.,4.8
1979-07-05 06:06:14.260 ,0,0,0.,4.8,0.,4.8,0.,4.8,0.,4.8
1979-07-05 06:06:19.060 ,0,0,0.,4.8,0.,4.8,0.,4.8,0.,4.8
1979-07-05 06:06:23.850 ,5,0,0.,4.8,0.,4.8,0.,4.8,0.,4.8
1979-07-05 06:06:28.650 ,5,0,0.,4.8,0.,4.8,0.,4.8,0.,4.8
1979-07-05 06:06:33.450 ,5,0,0.,4.8,0.,4.8,0.,4.8,0.,4.8
1979-07-05 06:06:38.250 ,5,0,1.,4.8,0.,4.8,0.,4.8,1.,4.8
1979-07-05 06:06:43.050 ,5,0,2.,4.8,0.,4.8,1.,4.8,0.,4.8
1979-07-05 06:06:47.850 ,5,0,1.,4.8,0.,4.8,0.,4.8,0.,4.8
1979-07-05 06:06:52.650 ,5,0,1.,4.8,0.,4.8,0.,4.8,0.,4.8
1979-07-05 06:06:57.450 ,5,0,0.,4.8,0.,4.8,0.,4.8,0.,4.8
1979-07-05 06:07:02.250 ,5,0,0.,4.8,0.,4.8,0.,4.8,0.,4.8
1979-07-05 06:07:07.050 ,5,0,0.,4.8,0.,4.8,0.,4.8,0.,4.8
1979-07-05 06:07:11.850 ,4,0,0.,4.8,0.,4.8,0.,4.8,0.,4.8
1979-07-05 06:07:16.650 ,4,0,0.,4.8,0.,4.8,0.,4.8,0.,4.8
1979-07-05 06:07:21.450 ,4,0,2.,4.8,0.,4.8,0.,4.8,0.,4.8
1979-07-05 06:07:26.250 ,4,0,0.,4.8,0.,4.8,0.,4.8,0.,4.8
1979-07-05 06:07:31.050 ,4,0,0.,4.8,0.,4.8,0.,4.8,0.,4.8
1979-07-05 06:07:35.850 ,4,0,0.,4.8,0.,4.8,0.,4.8,0.,4.8
1979-07-05 06:07:40.650 ,4,0,0.,4.8,0.,4.8,0.,4.8,0.,4.8
1979-07-05 06:07:45.450 ,4,0,0.,4.8,0.,4.8,0.,4.8,0.,4.8
1979-07-05 06:07:50.250 ,4,0,0.,4.8,0.,4.8,0.,4.8,0.,4.8
1979-07-05 06:07:55.050 ,4,0,0.,4.8,0.,4.8,0.,4.8,0.,4.8
1979-07-05 06:07:59.850 ,3,0,0.,4.8,0.,4.8,0.,4.8,0.,4.8
1979-07-05 06:08:04.650 ,3,0,1.,4.8,0.,4.8,1.,4.8,0.,4.8
1979-07-05 06:08:09.450 ,3,0,0.,4.8,0.,4.8,0.,4.8,0.,4.8
1979-07-05 06:08:14.250 ,3,0,0.,4.8,0.,4.8,0.,4.8,0.,4.8
1979-07-05 06:08:19.050 ,3,0,3.,4.8,0.,4.8,0.,4.8,0.,4.8
1979-07-05 06:08:23.850 ,3,0,0.,4.8,0.,4.8,0.,4.8,0.,4.8
1979-07-05 06:08:28.650 ,3,0,0.,4.8,0.,4.8,0.,4.8,0.,4.8
1979-07-05 06:08:33.450 ,3,0,0.,4.8,0.,4.8,0.,4.8,0.,4.8
1979-07-05 06:08:38.250 ,3,0,1.,4.8,0.,4.8,1.,4.8,0.,4.8
1979-07-05 06:08:43.050 ,3,0,1.,4.8,0.,4.8,0.,4.8,0.,4.8
1979-07-05 06:08:47.850 ,2,0,0.,4.8,0.,4.8,0.,4.8,0.,4.8
1979-07-05 06:08:52.650 ,2,0,1.,4.8,0.,4.8,0.,4.8,0.,4.8
1979-07-05 06:08:57.450 ,2,0,1.,4.8,0.,4.8,1.,4.8,0.,4.8
1979-07-05 06:09:02.250 ,2,0,0.,4.8,0.,4.8,0.,4.8,0.,4.8
1979-07-05 06:09:07.050 ,2,0,0.,4.8,0.,4.8,0.,4.8,0.,4.8
1979-07-05 06:09:11.850 ,2,0,0.,4.8,0.,4.8,0.,4.8,0.,4.8
1979-07-05 06:09:16.650 ,2,0,0.,4.8,0.,4.8,0.,4.8,0.,4.8
1979-07-05 06:09:21.450 ,2,0,0.,4.8,0.,4.8,0.,4.8,0.,4.8
1979-07-05 06:09:26.250 ,2,0,0.,4.8,0.,4.8,0.,4.8,0.,4.8
1979-07-05 06:09:31.050 ,2,0,0.,4.8,0.,4.8,0.,4.8,0.,4.8
1979-07-05 06:09:35.850 ,1,0,0.,4.8,0.,4.8,0.,4.8,0.,4.8
1979-07-05 06:09:40.650 ,1,0,0.,4.8,0.,4.8,0.,4.8,0.,4.8
1979-07-05 06:09:45.450 ,1,0,2.,4.8,0.,4.8,0.,4.8,0.,4.8
1979-07-05 06:09:50.250 ,1,0,0.,4.8,0.,4.8,0.,4.8,0.,4.8
1979-07-05 06:09:55.050 ,1,0,0.,4.8,0.,4.8,0.,4.8,0.,4.8
1979-07-05 06:09:59.850 ,1,0,0.,4.8,0.,4.8,0.,4.8,0.,4.8
1979-07-05 06:10:04.650 ,1,0,0.,4.8,0.,4.8,1.,4.8,0.,4.8
1979-07-05 06:10:09.450 ,1,0,0.,4.8,0.,4.8,0.,4.8,0.,4.8
1979-07-05 06:10:14.250 ,1,0,0.,4.8,0.,4.8,0.,4.8,0.,4.8
1979-07-05 06:10:19.050 ,1,0,0.,4.8,0.,4.8,0.,4.8,0.,4.8
1979-07-05 06:10:23.850 ,0,0,0.,4.8,0.,4.8,0.,4.8,1.,4.8
1979-07-05 06:10:28.650 ,0,0,0.,4.8,0.,4.8,0.,4.8,0.,4.8
1979-07-05 06:10:33.450 ,0,0,0.,4.8,0.,4.8,0.,4.8,0.,4.8
1979-07-05 06:10:38.250 ,0,0,0.,4.8,0.,4.8,0.,4.8,0.,4.8
1979-07-05 06:10:43.050 ,0,0,1.,4.8,0.,4.8,0.,4.8,0.,4.8
1979-07-05 06:10:47.850 ,0,0,0.,4.8,0.,4.8,0.,4.8,0.,4.8
1979-07-05 06:10:52.650 ,0,0,1.,4.8,0.,4.8,0.,4.8,0.,4.8
1979-07-05 06:10:57.450 ,0,0,1.,4.8,0.,4.8,0.,4.8,0.,4.8
1979-07-05 06:11:02.250 ,0,0,0.,4.8,0.,4.8,0.,4.8,0.,4.8
1979-07-05 06:11:07.050 ,0,0,0.,4.8,0.,4.8,0.,4.8,1.,4.8
1979-07-05 06:11:11.850 ,0,0,1.,4.8,1.,4.8,0.,4.8,0.,4.8
1979-07-05 06:11:16.650 ,0,0,0.,4.8,0.,4.8,1.,4.8,0.,4.8
1979-07-05 06:11:21.450 ,0,0,0.,4.8,0.,4.8,0.,4.8,0.,4.8
1979-07-05 06:11:26.250 ,0,0,0.,4.8,0.,4.8,0.,4.8,0.,4.8
1979-07-05 06:11:31.050 ,0,0,0.,4.8,0.,4.8,0.,4.8,0.,4.8
1979-07-05 06:11:35.850 ,0,0,0.,4.8,0.,4.8,0.,4.8,0.,4.8
1979-07-05 06:11:40.650 ,0,0,4.,4.8,0.,4.8,0.,4.8,0.,4.8
1979-07-05 06:11:45.450 ,0,0,0.,4.8,0.,4.8,0.,4.8,0.,4.8
1979-07-05 06:11:50.250 ,0,0,0.,4.8,0.,4.8,0.,4.8,0.,4.8
1979-07-05 06:11:55.050 ,0,0,0.,4.8,0.,4.8,1.,4.8,0.,4.8
1979-07-05 06:11:59.850 ,1,0,0.,4.8,1.,4.8,1.,4.8,0.,4.8
1979-07-05 06:12:04.650 ,1,0,0.,4.8,0.,4.8,0.,4.8,0.,4.8
1979-07-05 06:12:09.450 ,1,0,0.,4.8,0.,4.8,0.,4.8,0.,4.8
1979-07-05 06:12:14.250 ,1,0,0.,4.8,0.,4.8,0.,4.8,0.,4.8
1979-07-05 06:12:19.050 ,1,0,1.,4.8,0.,4.8,0.,4.8,0.,4.8
1979-07-05 06:12:23.850 ,1,0,0.,4.8,0.,4.8,0.,4.8,0.,4.8
1979-07-05 06:12:28.650 ,1,0,0.,4.8,0.,4.8,0.,4.8,0.,4.8
1979-07-05 06:12:33.450 ,1,0,0.,4.8,0.,4.8,0.,4.8,0.,4.8
1979-07-05 06:12:38.250 ,1,0,0.,4.8,0.,4.8,0.,4.8,0.,4.8
1979-07-05 06:12:43.050 ,1,0,0.,4.8,0.,4.8,0.,4.8,0.,4.8
1979-07-05 06:12:47.850 ,2,0,0.,4.8,0.,4.8,0.,4.8,0.,4.8
1979-07-05 06:12:52.650 ,2,0,0.,4.8,0.,4.8,0.,4.8,0.,4.8
1979-07-05 06:12:57.450 ,2,0,0.,4.8,0.,4.8,0.,4.8,0.,4.8
1979-07-05 06:13:02.250 ,2,0,0.,4.8,0.,4.8,0.,4.8,0.,4.8
1979-07-05 06:13:07.050 ,2,0,0.,4.8,0.,4.8,0.,4.8,0.,4.8
1979-07-05 06:13:11.850 ,0,0,0.,4.8,0.,4.8,0.,4.8,0.,4.8
1979-07-05 06:13:16.650 ,0,0,0.,4.8,0.,4.8,0.,4.8,0.,4.8
1979-07-05 06:13:21.450 ,0,0,0.,4.8,0.,4.8,0.,4.8,0.,4.8
1979-07-05 06:13:26.250 ,0,0,0.,4.8,0.,4.8,0.,4.8,0.,4.8
1979-07-05 06:13:31.050 ,0,0,0.,4.8,0.,4.8,1.,4.8,0.,4.8
1979-07-05 06:13:40.650 ,0,0,,0,,0,,0,,0
1979-07-05 06:13:45.450 ,0,0,0.,4.8,0.,4.8,0.,4.8,0.,4.8
1979-07-05 06:13:50.250 ,0,0,0.,4.8,0.,4.8,0.,4.8,0.,4.8
1979-07-05 06:13:55.050 ,0,0,0.,4.8,0.,4.8,0.,4.8,0.,4.8
1979-07-05 06:13:59.850 ,0,0,0.,4.8,0.,4.8,0.,4.8,0.,4.8
1979-07-05 06:13:59.850 ,0,0,0.,4.8,0.,4.8,0.,4.8,0.,4.8
1979-07-05 06:14:04.650 ,0,0,3.,4.8,0.,4.8,0.,4.8,0.,4.8
1979-07-05 06:14:09.450 ,0,0,1.,4.8,0.,4.8,1.,4.8,0.,4.8
1979-07-05 06:14:14.250 ,0,0,1.,4.8,0.,4.8,0.,4.8,0.,4.8
1979-07-05 06:14:19.050 ,0,0,0.,4.8,0.,4.8,0.,4.8,0.,4.8
1979-07-05 06:14:23.850 ,4,0,1.,4.8,0.,4.8,0.,4.8,0.,4.8
1979-07-05 06:14:28.650 ,4,0,0.,4.8,0.,4.8,0.,4.8,1.,4.8
1979-07-05 06:14:33.450 ,4,0,0.,4.8,0.,4.8,0.,4.8,0.,4.8
1979-07-05 06:14:38.250 ,4,0,1.,4.8,0.,4.8,0.,4.8,0.,4.8
1979-07-05 06:14:43.050 ,4,0,0.,4.8,0.,4.8,0.,4.8,0.,4.8
1979-07-05 06:14:47.850 ,4,0,0.,4.8,0.,4.8,0.,4.8,0.,4.8
1979-07-05 06:14:52.650 ,4,0,0.,4.8,0.,4.8,0.,4.8,0.,4.8
1979-07-05 06:14:57.450 ,4,0,0.,4.8,0.,4.8,0.,4.8,0.,4.8
1979-07-05 06:15:02.250 ,4,0,0.,4.8,0.,4.8,0.,4.8,0.,4.8
1979-07-05 06:15:07.050 ,4,0,1.,4.8,1.,4.8,0.,4.8,0.,4.8
1979-07-05 06:15:11.850 ,5,0,0.,4.8,0.,4.8,1.,4.8,0.,4.8
1979-07-05 06:15:16.650 ,5,0,0.,4.8,0.,4.8,0.,4.8,0.,4.8
1979-07-05 06:15:21.450 ,5,0,1.,4.8,1.,4.8,0.,4.8,0.,4.8
1979-07-05 06:15:26.250 ,5,0,1.,4.8,0.,4.8,0.,4.8,0.,4.8
1979-07-05 06:15:31.050 ,5,0,0.,4.8,0.,4.8,0.,4.8,0.,4.8
1979-07-05 06:15:35.850 ,5,0,0.,4.8,0.,4.8,0.,4.8,0.,4.8
1979-07-05 06:15:40.650 ,5,0,0.,4.8,0.,4.8,0.,4.8,0.,4.8
1979-07-05 06:15:45.450 ,5,0,0.,4.8,0.,4.8,0.,4.8,0.,4.8
1979-07-05 06:15:50.250 ,5,0,1.,4.8,0.,4.8,0.,4.8,0.,4.8
1979-07-05 06:15:55.050 ,5,0,0.,4.8,0.,4.8,0.,4.8,0.,4.8
1979-07-05 06:15:59.850 ,6,0,0.,4.8,0.,4.8,0.,4.8,0.,4.8
1979-07-05 06:16:04.650 ,6,0,0.,4.8,0.,4.8,0.,4.8,0.,4.8
1979-07-05 06:16:09.450 ,6,0,0.,4.8,0.,4.8,0.,4.8,0.,4.8
1979-07-05 06:16:14.250 ,6,0,0.,4.8,0.,4.8,0.,4.8,0.,4.8
1979-07-05 06:16:19.050 ,6,0,0.,4.8,0.,4.8,0.,4.8,0.,4.8
1979-07-05 06:16:23.850 ,6,0,0.,4.8,0.,4.8,0.,4.8,0.,4.8
1979-07-05 06:16:28.650 ,6,0,0.,4.8,0.,4.8,0.,4.8,0.,4.8
1979-07-05 06:16:33.450 ,6,0,0.,4.8,0.,4.8,0.,4.8,0.,4.8
1979-07-05 06:16:38.250 ,6,0,0.,4.8,0.,4.8,0.,4.8,0.,4.8
1979-07-05 06:16:43.050 ,6,0,0.,4.8,1.,4.8,0.,4.8,0.,4.8
1979-07-05 06:16:47.850 ,7,0,0.,4.8,0.,4.8,0.,4.8,0.,4.8
1979-07-05 06:16:52.650 ,7,0,0.,4.8,0.,4.8,0.,4.8,0.,4.8
1979-07-05 06:16:57.450 ,7,0,1.,4.8,0.,4.8,0.,4.8,0.,4.8
1979-07-05 06:17:02.250 ,7,0,0.,4.8,0.,4.8,0.,4.8,0.,4.8
1979-07-05 06:17:07.050 ,7,0,0.,4.8,0.,4.8,0.,4.8,0.,4.8
1979-07-05 06:17:11.850 ,7,0,1.,4.8,0.,4.8,0.,4.8,0.,4.8
1979-07-05 06:17:16.650 ,7,0,1.,4.8,0.,4.8,0.,4.8,0.,4.8
1979-07-05 06:17:21.450 ,7,0,1.,4.8,0.,4.8,0.,4.8,0.,4.8
1979-07-05 06:17:26.250 ,7,0,0.,4.8,0.,4.8,0.,4.8,0.,4.8
1979-07-05 06:17:31.050 ,7,0,1.,4.8,0.,4.8,0.,4.8,0.,4.8
1979-07-05 06:17:35.850 ,7,0,0.,4.8,0.,4.8,0.,4.8,0.,4.8
1979-07-05 06:17:40.650 ,7,0,0.,4.8,0.,4.8,0.,4.8,0.,4.8
1979-07-05 06:17:45.450 ,7,0,0.,4.8,0.,4.8,1.,4.8,0.,4.8
1979-07-05 06:17:50.250 ,7,0,0.,4.8,0.,4.8,0.,4.8,0.,4.8
1979-07-05 06:17:55.050 ,7,0,1.,4.8,0.,4.8,0.,4.8,0.,4.8
1979-07-05 06:17:59.850 ,7,0,1.,4.8,0.,4.8,1.,4.8,0.,4.8
1979-07-05 06:18:04.650 ,7,0,1.,4.8,0.,4.8,0.,4.8,0.,4.8
1979-07-05 06:18:09.450 ,7,0,0.,4.8,0.,4.8,0.,4.8,0.,4.8
1979-07-05 06:18:14.250 ,7,0,0.,4.8,0.,4.8,0.,4.8,0.,4.8
1979-07-05 06:18:19.050 ,7,0,0.,4.8,0.,4.8,0.,4.8,0.,4.8
1979-07-05 06:18:23.850 ,6,0,0.,4.8,0.,4.8,0.,4.8,0.,4.8
1979-07-05 06:18:28.650 ,6,0,0.,4.8,0.,4.8,1.,4.8,0.,4.8
1979-07-05 06:18:33.450 ,6,0,0.,4.8,0.,4.8,0.,4.8,0.,4.8
1979-07-05 06:18:38.250 ,6,0,0.,4.8,0.,4.8,0.,4.8,0.,4.8
1979-07-05 06:18:43.050 ,6,0,1.,4.8,0.,4.8,0.,4.8,0.,4.8
1979-07-05 06:18:47.850 ,6,0,0.,4.8,0.,4.8,0.,4.8,0.,4.8
1979-07-05 06:18:52.650 ,6,0,0.,4.8,0.,4.8,0.,4.8,0.,4.8
1979-07-05 06:18:57.450 ,6,0,0.,4.8,0.,4.8,0.,4.8,0.,4.8
1979-07-05 06:19:02.250 ,6,0,0.,4.8,0.,4.8,0.,4.8,0.,4.8
1979-07-05 06:19:07.050 ,6,0,0.,4.8,0.,4.8,0.,4.8,0.,4.8
1979-07-05 06:19:11.850 ,5,0,0.,4.8,0.,4.8,0.,4.8,0.,4.8
1979-07-05 06:19:16.650 ,5,0,0.,4.8,0.,4.8,0.,4.8,0.,4.8
1979-07-05 06:19:21.450 ,5,0,0.,4.8,0.,4.8,0.,4.8,0.,4.8
1979-07-05 06:19:26.250 ,5,0,0.,4.8,0.,4.8,0.,4.8,0.,4.8
1979-07-05 06:19:31.050 ,5,0,0.,4.8,0.,4.8,0.,4.8,0.,4.8
1979-07-05 06:19:35.850 ,5,0,1.,4.8,0.,4.8,0.,4.8,0.,4.8
1979-07-05 06:19:40.650 ,5,0,0.,4.8,0.,4.8,0.,4.8,0.,4.8
1979-07-05 06:19:45.450 ,5,0,0.,4.8,0.,4.8,0.,4.8,0.,4.8
1979-07-05 06:19:50.250 ,5,0,0.,4.8,0.,4.8,0.,4.8,0.,4.8
1979-07-05 06:19:55.050 ,5,0,0.,4.8,0.,4.8,0.,4.8,0.,4.8
1979-07-05 06:19:59.850 ,4,0,1.,4.8,0.,4.8,0.,4.8,0.,4.8
1979-07-05 06:20:04.650 ,4,0,0.,4.8,0.,4.8,0.,4.8,0.,4.8
1979-07-05 06:20:09.450 ,4,0,1.,4.8,0.,4.8,0.,4.8,0.,4.8
1979-07-05 06:20:14.250 ,4,0,3.,4.8,0.,4.8,0.,4.8,0.,4.8
1979-07-05 06:20:19.050 ,4,0,0.,4.8,0.,4.8,0.,4.8,0.,4.8
1979-07-05 06:20:23.850 ,4,0,0.,4.8,0.,4.8,0.,4.8,0.,4.8
1979-07-05 06:20:28.650 ,4,0,0.,4.8,0.,4.8,0.,4.8,0.,4.8
1979-07-05 06:20:33.450 ,4,0,1.,4.8,0.,4.8,0.,4.8,0.,4.8
1979-07-05 06:20:38.250 ,4,0,0.,4.8,0.,4.8,0.,4.8,0.,4.8
1979-07-05 06:20:43.050 ,4,0,0.,4.8,0.,4.8,0.,4.8,0.,4.8
1979-07-05 06:20:47.850 ,3,0,0.,4.8,0.,4.8,0.,4.8,0.,4.8
1979-07-05 06:20:52.650 ,3,0,0.,4.8,0.,4.8,0.,4.8,0.,4.8
1979-07-05 06:20:57.450 ,3,0,0.,4.8,0.,4.8,0.,4.8,0.,4.8
1979-07-05 06:21:02.250 ,3,0,0.,4.8,0.,4.8,0.,4.8,0.,4.8
1979-07-05 06:21:07.050 ,3,0,0.,4.8,0.,4.8,0.,4.8,0.,4.8
1979-07-05 06:21:11.850 ,3,0,0.,4.8,0.,4.8,0.,4.8,0.,4.8
1979-07-05 06:21:16.650 ,3,0,0.,4.8,0.,4.8,0.,4.8,0.,4.8
1979-07-05 06:21:21.450 ,3,0,0.,4.8,0.,4.8,0.,4.8,0.,4.8
1979-07-05 06:21:26.250 ,3,0,0.,4.8,0.,4.8,0.,4.8,0.,4.8
1979-07-05 06:21:31.050 ,3,0,0.,4.8,0.,4.8,0.,4.8,0.,4.8
1979-07-05 06:21:35.850 ,2,0,1.,4.8,0.,4.8,0.,4.8,0.,4.8
1979-07-05 06:21:40.650 ,2,0,0.,4.8,0.,4.8,1.,4.8,0.,4.8
1979-07-05 06:21:45.450 ,2,0,1.,4.8,1.,4.8,0.,4.8,0.,4.8
1979-07-05 06:21:50.250 ,2,0,0.,4.8,0.,4.8,0.,4.8,0.,4.8
1979-07-05 06:21:55.050 ,2,0,0.,4.8,0.,4.8,0.,4.8,0.,4.8
1979-07-05 06:21:59.850 ,2,0,0.,4.8,0.,4.8,0.,4.8,0.,4.8
1979-07-05 06:22:04.650 ,2,0,0.,4.8,0.,4.8,0.,4.8,0.,4.8
1979-07-05 06:22:09.450 ,2,0,0.,4.8,0.,4.8,0.,4.8,0.,4.8
1979-07-05 06:22:14.250 ,2,0,0.,4.8,0.,4.8,0.,4.8,0.,4.8
1979-07-05 06:22:19.050 ,2,0,0.,4.8,0.,4.8,0.,4.8,0.,4.8
1979-07-05 06:22:23.850 ,1,0,1.,4.8,0.,4.8,0.,4.8,0.,4.8
1979-07-05 06:22:28.650 ,1,0,2.,4.8,0.,4.8,0.,4.8,0.,4.8
1979-07-05 06:22:33.450 ,1,0,0.,4.8,0.,4.8,0.,4.8,0.,4.8
1979-07-05 06:22:38.250 ,1,0,0.,4.8,0.,4.8,0.,4.8,0.,4.8
1979-07-05 06:22:43.050 ,1,0,0.,4.8,0.,4.8,0.,4.8,0.,4.8
1979-07-05 06:22:47.850 ,1,0,0.,4.8,0.,4.8,0.,4.8,0.,4.8
1979-07-05 06:22:52.650 ,1,0,0.,4.8,0.,4.8,0.,4.8,0.,4.8
1979-07-05 06:22:57.450 ,1,0,0.,4.8,0.,4.8,0.,4.8,0.,4.8
1979-07-05 06:23:02.250 ,1,0,0.,4.8,0.,4.8,0.,4.8,0.,4.8
1979-07-05 06:23:07.050 ,1,0,0.,4.8,0.,4.8,0.,4.8,0.,4.8
1979-07-05 06:23:11.850 ,0,0,0.,4.8,0.,4.8,0.,4.8,0.,4.8
1979-07-05 06:23:16.650 ,0,0,0.,4.8,0.,4.8,1.,4.8,0.,4.8
1979-07-05 06:23:21.450 ,0,0,1.,4.8,0.,4.8,0.,4.8,0.,4.8
1979-07-05 06:23:26.250 ,0,0,0.,4.8,0.,4.8,0.,4.8,0.,4.8
1979-07-05 06:23:31.050 ,0,0,0.,4.8,0.,4.8,0.,4.8,0.,4.8
1979-07-05 06:23:35.850 ,0,0,0.,4.8,0.,4.8,0.,4.8,0.,4.8
1979-07-05 06:23:40.650 ,0,0,0.,4.8,0.,4.8,0.,4.8,0.,4.8
1979-07-05 06:23:45.450 ,0,0,2.,4.8,0.,4.8,0.,4.8,0.,4.8
1979-07-05 06:23:50.250 ,0,0,0.,4.8,0.,4.8,0.,4.8,0.,4.8
1979-07-05 06:23:55.050 ,0,0,0.,4.8,0.,4.8,0.,4.8,0.,4.8
1979-07-05 06:23:59.850 ,0,0,0.,4.8,0.,4.8,0.,4.8,0.,4.8
1979-07-05 06:24:04.650 ,0,0,0.,4.8,0.,4.8,0.,4.8,1.,4.8
1979-07-05 06:24:09.450 ,0,0,1.,4.8,0.,4.8,0.,4.8,0.,4.8
1979-07-05 06:24:14.250 ,0,0,0.,4.8,0.,4.8,0.,4.8,0.,4.8
1979-07-05 06:24:19.050 ,0,0,0.,4.8,0.,4.8,0.,4.8,0.,4.8
1979-07-05 06:24:23.850 ,0,0,0.,4.8,0.,4.8,1.,4.8,0.,4.8
1979-07-05 06:24:28.650 ,0,0,1.,4.8,0.,4.8,0.,4.8,1.,4.8
1979-07-05 06:24:33.450 ,0,0,0.,4.8,0.,4.8,0.,4.8,0.,4.8
1979-07-05 06:24:38.250 ,0,0,0.,4.8,0.,4.8,0.,4.8,0.,4.8
1979-07-05 06:24:43.050 ,0,0,0.,4.8,0.,4.8,0.,4.8,0.,4.8
1979-07-05 06:24:47.850 ,1,0,0.,4.8,0.,4.8,0.,4.8,0.,4.8
1979-07-05 06:24:52.650 ,1,0,0.,4.8,0.,4.8,0.,4.8,0.,4.8
1979-07-05 06:24:57.450 ,1,0,0.,4.8,0.,4.8,0.,4.8,0.,4.8
1979-07-05 06:25:02.250 ,1,0,0.,4.8,0.,4.8,0.,4.8,0.,4.8
1979-07-05 06:25:07.050 ,1,0,1.,4.8,0.,4.8,0.,4.8,0.,4.8
1979-07-05 06:25:11.850 ,1,0,2.,4.8,0.,4.8,0.,4.8,0.,4.8
1979-07-05 06:25:16.650 ,1,0,0.,4.8,0.,4.8,0.,4.8,0.,4.8
1979-07-05 06:25:21.450 ,1,0,0.,4.8,0.,4.8,0.,4.8,0.,4.8
1979-07-05 06:25:26.250 ,1,0,0.,4.8,0.,4.8,1.,4.8,0.,4.8
1979-07-05 06:25:31.050 ,1,0,1.,4.8,0.,4.8,0.,4.8,0.,4.8
1979-07-05 06:25:35.850 ,2,0,0.,4.8,0.,4.8,0.,4.8,0.,4.8
1979-07-05 06:25:40.650 ,2,0,1.,4.8,0.,4.8,0.,4.8,0.,4.8
1979-07-05 06:25:45.450 ,2,0,0.,4.8,0.,4.8,0.,4.8,0.,4.8
1979-07-05 06:25:50.250 ,2,0,1.,4.8,0.,4.8,0.,4.8,0.,4.8
1979-07-05 06:25:55.050 ,2,0,1.,4.8,0.,4.8,0.,4.8,0.,4.8
1979-07-05 06:25:59.850 ,2,0,0.,4.8,0.,4.8,0.,4.8,0.,4.8
1979-07-05 06:26:04.650 ,2,0,2.,4.8,0.,4.8,0.,4.8,0.,4.8
1979-07-05 06:26:09.450 ,2,0,1.,4.8,0.,4.8,0.,4.8,0.,4.8
1979-07-05 06:26:14.250 ,2,0,0.,4.8,0.,4.8,0.,4.8,0.,4.8
1979-07-05 06:26:19.050 ,2,0,0.,4.8,0.,4.8,0.,4.8,0.,4.8
1979-07-05 06:26:23.850 ,3,0,0.,4.8,1.,4.8,1.,4.8,0.,4.8
1979-07-05 06:26:28.650 ,3,0,1.,4.8,0.,4.8,0.,4.8,0.,4.8
1979-07-05 06:26:33.450 ,3,0,0.,4.8,0.,4.8,2.,4.8,0.,4.8
1979-07-05 06:26:38.250 ,3,0,1.,4.8,0.,4.8,0.,4.8,0.,4.8
1979-07-05 06:26:43.050 ,3,0,0.,4.8,0.,4.8,0.,4.8,0.,4.8
1979-07-05 06:26:47.850 ,3,0,0.,4.8,0.,4.8,0.,4.8,0.,4.8
1979-07-05 06:26:52.650 ,3,0,0.,4.8,0.,4.8,0.,4.8,0.,4.8
1979-07-05 06:26:57.450 ,3,0,0.,4.8,0.,4.8,0.,4.8,0.,4.8
1979-07-05 06:27:02.250 ,3,0,0.,4.8,0.,4.8,0.,4.8,0.,4.8
1979-07-05 06:27:07.050 ,3,0,0.,4.8,0.,4.8,0.,4.8,1.,4.8
1979-07-05 06:27:11.850 ,4,0,2.,4.8,0.,4.8,0.,4.8,0.,4.8
1979-07-05 06:27:16.650 ,4,0,0.,4.8,0.,4.8,0.,4.8,0.,4.8
1979-07-05 06:27:21.450 ,4,0,1.,4.8,0.,4.8,0.,4.8,0.,4.8
1979-07-05 06:27:26.250 ,4,0,1.,4.8,0.,4.8,0.,4.8,0.,4.8
1979-07-05 06:27:31.050 ,4,0,0.,4.8,0.,4.8,0.,4.8,0.,4.8
1979-07-05 06:27:35.850 ,4,0,0.,4.8,0.,4.8,0.,4.8,0.,4.8
1979-07-05 06:27:40.650 ,4,0,0.,4.8,0.,4.8,0.,4.8,0.,4.8
1979-07-05 06:27:45.450 ,4,0,2.,4.8,0.,4.8,0.,4.8,0.,4.8
1979-07-05 06:27:50.250 ,4,0,0.,4.8,0.,4.8,0.,4.8,0.,4.8
1979-07-05 06:27:55.050 ,4,0,0.,4.8,0.,4.8,0.,4.8,0.,4.8
1979-07-05 06:27:59.850 ,5,0,0.,4.8,0.,4.8,0.,4.8,0.,4.8
1979-07-05 06:28:04.650 ,5,0,1.,4.8,0.,4.8,0.,4.8,0.,4.8
1979-07-05 06:28:09.450 ,5,0,0.,4.8,0.,4.8,0.,4.8,0.,4.8
1979-07-05 06:28:14.250 ,5,0,0.,4.8,0.,4.8,0.,4.8,0.,4.8
1979-07-05 06:28:19.050 ,5,0,0.,4.8,0.,4.8,0.,4.8,1.,4.8
1979-07-05 06:28:23.850 ,5,0,0.,4.8,0.,4.8,0.,4.8,0.,4.8
1979-07-05 06:28:28.650 ,5,0,0.,4.8,0.,4.8,0.,4.8,0.,4.8
1979-07-05 06:28:33.450 ,5,0,0.,4.8,0.,4.8,0.,4.8,0.,4.8
1979-07-05 06:28:38.250 ,5,0,0.,4.8,0.,4.8,1.,4.8,0.,4.8
1979-07-05 06:28:43.050 ,5,0,0.,4.8,0.,4.8,0.,4.8,0.,4.8
1979-07-05 06:28:47.850 ,6,0,0.,4.8,0.,4.8,0.,4.8,0.,4.8
1979-07-05 06:28:52.650 ,6,0,0.,4.8,0.,4.8,1.,4.8,0.,4.8
1979-07-05 06:28:57.450 ,6,0,0.,4.8,0.,4.8,0.,4.8,0.,4.8
1979-07-05 06:29:02.250 ,6,0,0.,4.8,0.,4.8,0.,4.8,0.,4.8
1979-07-05 06:29:07.050 ,6,0,0.,4.8,0.,4.8,0.,4.8,0.,4.8
1979-07-05 06:29:11.850 ,6,0,0.,4.8,0.,4.8,0.,4.8,0.,4.8
1979-07-05 06:29:16.650 ,6,0,0.,4.8,0.,4.8,0.,4.8,0.,4.8
1979-07-05 06:29:21.450 ,6,0,0.,4.8,0.,4.8,0.,4.8,0.,4.8
1979-07-05 06:29:26.250 ,6,0,1.,4.8,0.,4.8,0.,4.8,0.,4.8
1979-07-05 06:29:31.050 ,6,0,0.,4.8,0.,4.8,0.,4.8,0.,4.8
1979-07-05 06:29:35.850 ,7,0,0.,4.8,0.,4.8,0.,4.8,0.,4.8
1979-07-05 06:29:40.650 ,7,0,1.,4.8,0.,4.8,0.,4.8,0.,4.8
1979-07-05 06:29:45.450 ,7,0,0.,4.8,0.,4.8,0.,4.8,0.,4.8
1979-07-05 06:29:50.250 ,7,0,0.,4.8,0.,4.8,0.,4.8,0.,4.8
1979-07-05 06:29:55.050 ,7,0,0.,4.8,0.,4.8,0.,4.8,0.,4.8
1979-07-05 06:29:59.850 ,7,0,1.,4.8,0.,4.8,1.,4.8,0.,4.8
1979-07-05 06:30:04.650 ,7,0,1.,4.8,0.,4.8,0.,4.8,0.,4.8
1979-07-05 06:30:09.450 ,7,0,0.,4.8,0.,4.8,0.,4.8,0.,4.8
1979-07-05 06:30:14.250 ,7,0,0.,4.8,0.,4.8,0.,4.8,0.,4.8
1979-07-05 06:30:19.050 ,7,0,0.,4.8,0.,4.8,0.,4.8,0.,4.8
1979-07-05 06:30:23.850 ,7,0,0.,4.8,0.,4.8,0.,4.8,0.,4.8
1979-07-05 06:30:28.650 ,7,0,0.,4.8,0.,4.8,0.,4.8,0.,4.8
1979-07-05 06:30:33.450 ,7,0,0.,4.8,0.,4.8,0.,4.8,0.,4.8
1979-07-05 06:30:38.250 ,7,0,1.,4.8,0.,4.8,0.,4.8,0.,4.8
1979-07-05 06:30:43.050 ,7,0,0.,4.8,0.,4.8,0.,4.8,0.,4.8
1979-07-05 06:30:47.850 ,7,0,0.,4.8,0.,4.8,0.,4.8,0.,4.8
1979-07-05 06:30:52.650 ,7,0,1.,4.8,0.,4.8,0.,4.8,0.,4.8
1979-07-05 06:30:57.450 ,7,0,0.,4.8,0.,4.8,0.,4.8,0.,4.8
1979-07-05 06:31:02.250 ,7,0,0.,4.8,0.,4.8,0.,4.8,0.,4.8
1979-07-05 06:31:07.050 ,7,0,1.,4.8,0.,4.8,0.,4.8,0.,4.8
1979-07-05 06:31:11.850 ,6,0,0.,4.8,0.,4.8,0.,4.8,0.,4.8
1979-07-05 06:31:16.650 ,6,0,0.,4.8,0.,4.8,0.,4.8,0.,4.8
1979-07-05 06:31:21.450 ,6,0,0.,4.8,0.,4.8,0.,4.8,0.,4.8
1979-07-05 06:31:26.250 ,6,0,0.,4.8,0.,4.8,0.,4.8,0.,4.8
1979-07-05 06:31:31.050 ,6,0,0.,4.8,0.,4.8,0.,4.8,0.,4.8
1979-07-05 06:31:35.850 ,6,0,3.,4.8,0.,4.8,0.,4.8,0.,4.8
1979-07-05 06:31:40.650 ,6,0,1.,4.8,0.,4.8,0.,4.8,0.,4.8
1979-07-05 06:31:45.450 ,6,0,0.,4.8,0.,4.8,1.,4.8,0.,4.8
1979-07-05 06:31:50.250 ,6,0,0.,4.8,0.,4.8,0.,4.8,0.,4.8
1979-07-05 06:31:55.050 ,6,0,0.,4.8,0.,4.8,0.,4.8,0.,4.8
1979-07-05 06:31:59.850 ,5,0,1.,4.8,0.,4.8,0.,4.8,0.,4.8
1979-07-05 06:32:04.650 ,5,0,0.,4.8,0.,4.8,0.,4.8,0.,4.8
1979-07-05 06:32:09.450 ,5,0,1.,4.8,0.,4.8,0.,4.8,0.,4.8
1979-07-05 06:32:14.250 ,5,0,1.,4.8,1.,4.8,0.,4.8,0.,4.8
1979-07-05 06:32:19.050 ,5,0,0.,4.8,0.,4.8,0.,4.8,0.,4.8
1979-07-05 06:32:23.850 ,5,0,0.,4.8,0.,4.8,0.,4.8,0.,4.8
1979-07-05 06:32:28.650 ,5,0,0.,4.8,0.,4.8,0.,4.8,0.,4.8
1979-07-05 06:32:33.450 ,5,0,1.,4.8,0.,4.8,0.,4.8,0.,4.8
1979-07-05 06:32:38.250 ,5,0,1.,4.8,0.,4.8,0.,4.8,0.,4.8
1979-07-05 06:32:43.050 ,5,0,1.,4.8,0.,4.8,0.,4.8,0.,4.8
1979-07-05 06:32:47.850 ,4,0,0.,4.8,0.,4.8,0.,4.8,0.,4.8
1979-07-05 06:32:52.650 ,4,0,0.,4.8,0.,4.8,1.,4.8,0.,4.8
1979-07-05 06:32:57.450 ,4,0,0.,4.8,0.,4.8,0.,4.8,0.,4.8
1979-07-05 06:33:02.250 ,4,0,0.,4.8,0.,4.8,0.,4.8,1.,4.8
1979-07-05 06:33:07.050 ,4,0,0.,4.8,0.,4.8,0.,4.8,0.,4.8
1979-07-05 06:33:11.850 ,4,0,0.,4.8,0.,4.8,0.,4.8,0.,4.8
1979-07-05 06:33:16.650 ,4,0,0.,4.8,0.,4.8,0.,4.8,0.,4.8